This is the latest recevied weather packets stored in our database for station/object K5YNC. If no packets are shown the sender has not sent any weather packets the latest 10 day(s).
| Time | Temp. | Humidity | Pressure | Rain* | Wind** | Luminosity | Snow |
|---|---|---|---|---|---|---|---|
| 1777065315 | 30.56° C | 48% | 1005.1 hPa | 0 mm | - | 583 W/m² | - |
| 1777065011 | 30.56° C | 48% | 1005.3 hPa | 0 mm | - | 595 W/m² | - |
| 1777064708 | 30.56° C | 48% | 1005.5 hPa | 0 mm | - | 606 W/m² | - |
| 1777064404 | 31.11° C | 50% | 1005.5 hPa | 0 mm | - | 618 W/m² | - |
| 1777064101 | 30.56° C | 51% | 1005.5 hPa | 0 mm | - | 626 W/m² | - |
| 1777063801 | 30.56° C | 52% | 1005.4 hPa | 0 mm | - | 642 W/m² | - |
| 1777063496 | 31.11° C | 50% | 1005.6 hPa | 0 mm | - | 648 W/m² | - |
| 1777063192 | 31.11° C | 53% | 1005.4 hPa | 0 mm | - | 659 W/m² | - |
| 1777062889 | 31.11° C | 52% | 1005.7 hPa | 0 mm | - | 670 W/m² | - |
| 1777062585 | 31.11° C | 53% | 1005.6 hPa | 0 mm | - | 681 W/m² | - |
| 1777062283 | 31.11° C | 49% | 1005.7 hPa | 0 mm | - | 692 W/m² | - |
| 1777061982 | 31.67° C | 50% | 1005.8 hPa | 0 mm | - | 699 W/m² | - |
| 1777061677 | 31.67° C | 50% | 1005.8 hPa | 0 mm | - | 715 W/m² | - |
| 1777061374 | 31.67° C | 50% | 1005.9 hPa | 0 mm | - | 731 W/m² | - |
| 1777061074 | 31.67° C | 48% | 1006 hPa | 0 mm | - | 718 W/m² | - |
| 1777060770 | 31.67° C | 51% | 1005.9 hPa | 0 mm | - | 720 W/m² | - |
| 1777060470 | 31.11° C | 51% | 1006 hPa | 0 mm | - | 744 W/m² | - |
| 1777060167 | 30.56° C | 53% | 1006.1 hPa | 0 mm | - | 759 W/m² | - |
| 1777059863 | 30.56° C | 51% | 1006.2 hPa | 0 mm | - | 792 W/m² | - |
| 1777059559 | 30.56° C | 50% | 1006.1 hPa | 0 mm | - | 755 W/m² | - |
| 1777059256 | 30.56° C | 55% | 1006.2 hPa | 0 mm | - | 751 W/m² | - |
| 1777058956 | 30.56° C | 53% | 1006.1 hPa | 0 mm | - | 770 W/m² | - |
| 1777058651 | 30° C | 57% | 1006.2 hPa | 0 mm | - | 767 W/m² | - |
| 1777058348 | 30° C | 55% | 1006.1 hPa | 0 mm | - | 790 W/m² | - |
| 1777058045 | 30.56° C | 56% | 1006.3 hPa | 0 mm | - | 782 W/m² | - |
* Rain latest hour (hover to see other rain measurements)
** Current wind speed in m/s (hover to see current wind gust speed)